Location: Beau Repaire
(50.6144°N, 4.0551°E)
Time: 15:46:48
(UTC+00:00)

NOSS 0 Rocket - Pass Details

Date: 15 May 2026
Orbit: 936 x 952 km, 70.0° (Epoch: 10 June)

Event Time Altitude Azimuth Distance (km) Brightness Sun altitude
Rises 23:20:01 0° 326° (NW) 3,616 8.0 -20.2°
Reaches altitude 10° 23:22:36 10° 322° (NW) 2,665 7.1 -20.2°
Maximum altitude 23:28:35 55° 247° (WSW) 1,118 4.1 -20.3°
Enters shadow 23:30:48 37° 191° (S) 1,431 4.4 -20.3°
